Regional Weather Roundup
Issued by NWS San Angelo, TX

Home | Current Version | Previous Version | Text Only | Print | Product List | Glossary On
Versions: 1 2 3 4 5 6 7 8 9 10 11 12 13 14 15 16 17 18 19 20 21 22 23 24 25 26 27 28 29 30 31 32 33 34 35 36 37 38 39 40 41 42 43 44 45 46 47 48 49 50
000
ASUS44 KSJT 240910
RWRSJT
WEST CENTRAL TEXAS REGIONAL WEATHER ROUNDUP
NATIONAL WEATHER SERVICE SAN ANGELO TX
300 AM CST FRI NOV 24 2017

NOTE: "FAIR" INDICATES FEW OR NO CLOUDS BELOW 12,000 FEET WITH NO
SIGNIFICANT WEATHER AND/OR OBSTRUCTIONS TO VISIBILITY.

TXZ049-054-064>066-071>073-076>078-098-099-113-114-127-128-139-140-
154-155-168>170-241000
...LOCATIONS ACROSS WEST CENTRAL TEXAS...

CITY           SKY/WX    TMP DP  RH WIND       PRES   REMARKS
SAN ANGELO     CLEAR     42  30  62 W6        30.00F HAZE    WCI  38
ABILENE        CLEAR     51  32  48 S7        29.97F
DYESS AFB      CLEAR     48  33  56 S3        29.96F HAZE
JUNCTION       CLEAR     36  29  75 CALM      30.03F
SWEETWATER     CLEAR     54  30  39 SW12      30.01S
BROWNWOOD      CLEAR     37  32  81 CALM      29.99F
COLEMAN        SUNNY     48  32  54 SW6       29.99S
SONORA         CLOUDY    34  25  69 CALM      30.07F
OZONA          FAIR      36  25  64 CALM      30.06F
BRADY          NOT AVBL
$$

TEXAS PANHANDLE/OKLAHOMA PANHANDLE

CITY           SKY/WX    TMP DP  RH WIND       PRES   REMARKS
AMARILLO       CLOUDY    48  31  51 SW9       29.93F
BORGER         CLEAR     54  32  43 SW7       29.89F
CANADIAN       CLOUDY    41  37  86 CALM      29.88F
DALHART        CLOUDY    38  31  76 S7        29.91F WCI  33
DUMAS          CLOUDY    48  30  50 SW13      29.90F
GUYMON         NOT AVBL
HEREFORD       CLOUDY    43  33  66 MISG      29.95F
PAMPA          SUNNY     51  33  48 SW12      29.90F
PERRYTON       CLEAR     50  36  58 SW10      29.85F
$$

SOUTHERN PANHANDLE/SOUTH PLAINS/ROLLING PLAINS

CITY           SKY/WX    TMP DP  RH WIND       PRES   REMARKS
LUBBOCK        CLOUDY    45  32  60 W10       29.97F WCI  40
SNYDER         CLEAR     47  32  56 SW7       30.00S
CHILDRESS      CLOUDY    47  33  58 W8        29.92F
SEMINOLE       CLOUDY    45  32  59 W8        30.02F
$$

PERMIAN BASIN

CITY           SKY/WX    TMP DP  RH WIND       PRES   REMARKS
MIDLAND        CLOUDY    51  30  44 SW10      30.02F
ODESSA         CLOUDY    48  30  49 SW6       30.03F
WINK           CLOUDY    38  30  73 N5        30.01F WCI  34
$$

FAR WEST/SOUTHWEST MOUNTAINS/TRANS PECOS

CITY           SKY/WX    TMP DP  RH WIND       PRES   REMARKS
ALPINE         CLOUDY    46  26  46 SW9       30.15F
DRYDEN           N/A     43  31  62 CALM      30.02F
EL PASO        PTCLDY    45  27  49 CALM      30.08F
FORT STOCKTON  CLOUDY    52  30  43 SW13      30.03F
GUADALUPE PASS CLOUDY    51  25  36 SW15      30.13F
MARFA          CLOUDY    34  22  61 N7        30.14F WCI  28
PECOS          CLOUDY    41  28  61 SW3       30.02F
$$

DALLAS/FORT WORTH METROPLEX

CITY           SKY/WX    TMP DP  RH WIND       PRES   REMARKS
DFW AIRPORT    PTCLDY    49  33  54 S9        29.96F
FTW MEACHAM    CLEAR     50  34  54 S8        29.96F
DAL-EXECUTIVE  CLEAR     53  31  42 S6        29.97F
GRAND PRAIRIE  CLEAR     49  31  48 S7        30.00F
ADDISON        CLEAR     48  31  52 S6        29.99F
MESQUITE       SUNNY     40  31  68 SE3       30.00F
LANCASTER      SUNNY     43  30  59 CALM      30.00F
$$

NORTH CENTRAL TEXAS

CITY           SKY/WX    TMP DP  RH WIND       PRES   REMARKS
SHRMAN/DENISON SUNNY     48  31  52 S9        29.97F
GAINESVILLE    CLEAR     44  32  62 CALM      29.98F
BRIDGEPORT     CLOUDY    39  33  77 CALM      29.97F
DENTON         CLEAR     45  33  63 SE5       29.96F
WAXAHACHIE     SUNNY     47  33  57 CALM      30.00F
GRANBURY       SUNNY     45  35  67 SE3       29.99F
$$

WESTERN NORTH TEXAS

CITY           SKY/WX    TMP DP  RH WIND       PRES   REMARKS
WICHITA FALLS  CLOUDY    48  34  58 SW13      29.92F
VERNON         SUNNY     47  32  55 W8        29.92F
BRECKENRIDGE   SUNNY     53  30  41 SW5       29.96F
COMANCHE       CLEAR     53  32  44 S3        29.98F
$$

CENTRAL AND SOUTH CENTRAL TEXAS

CITY           SKY/WX    TMP DP  RH WIND       PRES   REMARKS
AUSTIN/BERGSTM CLEAR     37  35  92 CALM      30.03F
WACO           CLEAR     41  33  73 E3        30.01F
HILLSBORO      SUNNY     47  33  57 S5        29.99F
TEMPLE         PTCLDY    43  32  65 S6        30.02F WCI  39
KILLEEN-GRAY   CLEAR     50  29  44 S9        29.99F
FORT HOOD      CLEAR     48  31  52 S3        29.97F
GEORGETOWN     CLEAR     43  32  65 CALM      30.03F
LAGO VISTA     FAIR      52  34  50 W6        30.02F
SAN MARCOS     CLEAR     41  32  70 CALM      30.04F
NEW BRAUNFELS  CLEAR     40  32  73 NW3       30.03S
RANDOLPH AFB   CLEAR     40  33  75 NW5       30.03F WCI  37
SAN ANTONIO    CLEAR     42  33  70 NW5       30.04F WCI  39
STINSON        CLEAR     44  38  79 CALM      30.03F
PLEASANTON     NOT AVBL
LA GRANGE      CLEAR     41  37  84 CALM      30.02F
GIDDINGS       SUNNY     42  36  79 CALM      30.04F
$$

EAST TEXAS

CITY           SKY/WX    TMP DP  RH WIND       PRES   REMARKS
PARIS          CLEAR     40  32  73 S5        30.00F WCI  37
CLARKSVILLE    NOT AVBL
TYLER          CLEAR     41  36  82 S5        30.02S WCI  38
LONGVIEW       CLEAR     40  37  89 S5        30.02F WCI  37
PALESTINE      SUNNY     41  35  77 CALM      30.04S
NACOGDOCHES    CLEAR     34  33  96 CALM      30.04F
$$

TEXAS HILL COUNTRY AND EDWARDS PLATEAU

CITY           SKY/WX    TMP DP  RH WIND       PRES   REMARKS
LLANO          SUNNY     37  32  81 CALM      30.05F
HORSESHOE BAY  FAIR      39  33  78 CALM      30.02F
KERRVILLE      CLEAR     37  34  88 NW3       30.05S
FREDERICKSBRG  CLEAR     36  31  81 SW3       30.04S
ROCKSPRINGS    NOT AVBL
HONDO          CLEAR     40  28  62 N6        30.05S WCI  36
UVALDE         SUNNY     41  34  76 CALM      30.05F
DEL RIO        CLEAR     47  37  68 E3        30.02F
$$

SOUTHEAST TEXAS

CITY           SKY/WX    TMP DP  RH WIND       PRES   REMARKS
COLLEGE STN    CLEAR     45  36  70 CALM      30.03F
CALDWELL       SUNNY     42  36  79 CALM      30.03F
CROCKETT         N/A     36  34  93 CALM      30.06F
BRENHAM        CLEAR     40  38  93 CALM      30.04F
HUNTSVILLE     CLEAR     44  37  76 S3        30.03F
CONROE         CLEAR     36  36 100 CALM      30.04F
HOUSTON BUSH   CLEAR     43  40  89 CALM      30.04F
HOUSTON HOBBY  PTCLDY    44  40  85 CALM      30.03F
PERLAND        CLEAR     45  41  86 CALM      30.06F
WHARTON        SUNNY     41  37  86 CALM      30.05F
$$

THE UPPER TEXAS COAST

CITY           SKY/WX    TMP DP  RH WIND       PRES   REMARKS
ORANGE         SUNNY     37  37 100 CALM      30.06F
PORT ARTHUR    CLEAR     40  39  97 CALM      30.04F
GALVESTON      CLEAR     55  45  68 NE5       30.04F
ANGLETON       CLEAR     40  38  93 CALM      30.04F
BAY CITY       SUNNY     41  40  99 CALM      30.04S
$$

TEXAS COASTAL BEND, RIO GRANDE PLAINS DEEP SOUTH TEXAS

CITY           SKY/WX    TMP DP  RH WIND       PRES   REMARKS
VICTORIA       CLEAR     40  37  89 NW6       30.04F WCI  36
BEEVILLE       FAIR      49  42  76 W5        30.04F
ROCKPORT       CLEAR     44  42  93 W5        30.04F
PORT ARANSAS   NOT AVBL
PORT LAVACA    SUNNY     44  39  84 CALM      30.04F
CORPUS CHRISTI CLEAR     45  36  70 W8        30.04F
KINGSVILLE NAS CLEAR     43  40  89 W3        30.05F
COTULLA        CLEAR     47  32  56 SE5       30.04F
LAREDO         CLEAR     50  37  61 SE7       30.05F
BROWNSVILLE    PTCLDY    49  45  86 CALM      30.04F
PORT ISABEL    CLEAR     48  45  89 CALM      30.03F
HEBBRONVILLE   SUNNY     45  37  74 SW6       30.05F
MCALLEN        CLEAR     50  45  83 CALM      30.05F
WESLACO        CLEAR     47  43  86 CALM      30.04F
FALFURRIAS     NOT AVBL
EDINBURG       SUNNY     46  42  85 CALM      30.05F
$$




USA.gov is the U.S. government's official web portal to all federal, state and local government web resources and services.